Location: Wells
(51.2093°N, 2.6446°W)
Time: 10:27:12
(UTC+01:00)

CUTE-I - Pass Details

Date: 18 March 2026
Orbit: 804 x 818 km, 98.7° (Epoch: 20 April)

Event Time Altitude Azimuth Distance (km) Brightness Sun altitude
Rises 05:24:30 0° 26° (NNE) 3,331 ? -9.2°
Reaches altitude 10° 05:27:30 10° 43° (NE) 2,395 ? -8.7°
Maximum altitude 05:31:19 20° 89° (E) 1,799 ? -8.1°
Drops below altitude 10° 05:35:06 10° 136° (SE) 2,386 ? -7.5°
Sets 05:38:04 0° 153° (SSE) 3,313 ? -7.1°
